H-2A DEB (43674 NORAD) Tracking and Keplerian Element Data

This shows tracking and keplerian element data for the satellite.

Feedback or suggestion? Click here.




ElementValue
Catalog43674
NameH-2A DEB
Epoch Orbit307
Epoch Day322.93369844
Epoch Year2018
RAAN73.2819
Inclination97.8562
Eccentricity0.0014259
Argument of Perigee220.7319
Mean Anonmoly139.2831
Mean Motion14.87703854
Decay Rate1.071E-05
L11 43674U 18084D 18322.93369844 .00001071 00000-0 12340-3 0 9999
L22 43674 97.8562 73.2819 0014259 220.7319 139.2831 14.87703854 3072

Live tracking and technical data element details for H-2A DEB (NORAD 43674). H-2A DEB can be tracked NOW for your location showing map with azimuth and elevation plus other details from your city location.

Track the satellite on the map from your city or location and see movement details for azimuth, elevation, latitude, longitude, range, height, and movement on the map or in text.







IsCatalogInMostPopularTable: catalog: 43674, numindb: 10
Update: records affected: 1



GetName: 43674 H-2A DEB

Hit Count: updated at: Tue, 20 Nov 2018 11:14:25 GMT